Back to catalog

COSMOS 645

AliveMilitaryLEO
NORAD 7269·PAYLOAD·🇷🇺 Russia

Launched Apr 23, 1974 from Plesetsk Cosmodrome

Loading…

Next Passes (next 24 hours)

TLE

FreshSource: Space-Track

Epoch: Sep 14, 2026, 13:38 UTC

1 07269U 74024E   26257.56844900 -.00000020  00000-0 -23101-4 0  9994
2 07269  74.0147  94.0264 0072132  21.8767 345.1433 12.59544191408905

Track COSMOS 645 in real time with AllMySat

Download on the App Store